Tracking 29892 objects as of 21-Nov-2024
HD Live streaming from Space Station
objects crossing your sky now

SAUDICOMSAT 4

Track SAUDICOMSAT 4 now!
10-day predictions
SAUDICOMSAT 4 is classified as:


NORAD ID: 31127
Int'l Code: 2007-012L
Perigee: 645.5 km
Apogee: 735.3 km
Inclination: 98.3 °
Period: 98.4 minutes
Semi major axis: 7061 km
RCS: 0.071 m2 (small)
Launch date: April 17, 2007
Source: Saudi Arabia (SAUD)
Launch site: TYURATAM MISSILE AND SPACE COMPLEX (TTMTR)
Your satellite tracking list
EXPRESS AT-2
Track 1 satellite(s)




NASA's NSSDC Master Catalog

Two Line Element Set (TLE):
1 31127U 07012L   24325.83388884  .00001595  00000-0  31176-3 0  9991
2 31127  98.3198 279.0314 0063572 249.5951 109.8415 14.63078681937559
Source of the keplerian elements: AFSPC